Tracking 23611 objects as of 18-Sep-2021
HD Live streaming from Space Station
objects crossing your sky now
Track INSPIRATION-4

STARLINK-1299

Track STARLINK-1299 now!
10-day predictions
STARLINK-1299 is classified as:


NORAD ID: 45418
Int'l Code: 2020-019BL
Perigee: 570.4 km
Apogee: 571.9 km
Inclination: 53.0 °
Period: 95.9 minutes
Semi major axis: 6942 km
RCS: Unknown
Launch date: March 18, 2020
Source: United States (US)
Launch site: AIR FORCE EASTERN TEST RANGE (AFETR)
aabbcc
Your satellite tracking list
Your tracking list is empty




NASA's NSSDC Master Catalog

Two Line Element Set (TLE):
1 45418U 20019BL  21261.55433366  .00001547  00000-0  14089-3 0  9993
2 45418  53.0024 314.2900 0001065  92.4355 267.6753 15.00929114 83062
Source of the keplerian elements: AFSPC